Theta_e
311 311 311 311 311 312 312 312 312 312 313 313 313 313 314 314 313 309 305 309 310 303 306 310 311 305 305 304 302 305 308 309 311 308 305 304 304 306 305 304 304 300 299 299 301 298 298 314 313 307 309 310 313 314
311 311 311 311 311 311 312 312 312 312 312 313 313 313 313 313 313 311 304 312 314 307 307 309 313 315 312 310 305 305 305 305 310 305 304 305 303 301 299 298 302 300 301 300 303 303 312 314 313 314 312 312 313 316
311 311 311 311 311 311 311 311 311 312 312 312 313 313 313 313 312 310 301 304 309 305 305 306 307 310 312 312 310 304 304 307 304 310 307 305 301 301 299 299 298 300 307 306 306 311 312 314 316 317 317 317 318 319
308 309 308 308 309 310 311 311 311 311 311 312 312 312 312 312 311 310 301 304 309 305 299 302 313 308 312 310 312 309 310 306 307 306 303 301 301 302 299 299 299 301 306 307 306 310 310 313 316 317 319 320 320 321
308 308 308 307 308 309 310 310 310 311 311 311 311 311 311 311 310 307 302 305 308 305 298 300 305 308 310 310 312 309 307 304 303 302 301 301 301 302 300 301 303 307 307 306 305 310 309 309 313 319 319 319 319 318
309 309 308 307 307 309 310 310 310 310 310 310 310 310 310 310 310 308 311 310 309 309 299 294 303 308 309 308 312 309 308 305 304 302 301 301 303 304 300 301 309 311 310 312 311 313 315 317 319 320 317 317 318 317
308 309 309 309 308 309 309 309 309 309 310 309 309 309 309 309 303 305 310 313 308 310 304 301 301 308 308 306 307 307 306 306 305 301 301 301 302 303 299 304 311 312 313 315 315 314 312 314 312 315 317 318 317 317
307 308 309 309 309 309 309 309 309 309 309 309 309 309 310 309 306 308 312 310 308 307 308 300 301 303 310 305 304 305 304 303 302 302 303 301 304 302 301 306 312 313 314 314 313 313 312 313 313 313 314 315 314 313
306 307 307 309 309 309 309 309 309 309 308 308 309 310 308 308 310 310 315 314 308 306 304 302 296 297 309 304 305 307 305 300 303 300 300 305 307 304 306 309 311 312 312 312 313 314 313 312 313 314 315 315 314 314
306 306 307 307 308 309 309 309 309 308 307 307 303 304 308 306 311 311 308 305 305 305 303 300 304 303 305 303 302 305 304 301 299 303 307 308 306 310 312 311 312 313 314 314 310 309 311 312 313 313 314 315 315 315
306 306 306 307 307 308 308 309 308 307 305 297 293 295 300 307 306 305 300 302 304 302 304 304 302 299 303 304 301 305 303 301 298 301 303 304 304 309 313 311 312 312 313 313 314 313 313 313 313 313 315 317 316 317
307 307 306 307 306 307 308 308 308 301 298 299 301 304 299 303 302 301 300 301 305 306 308 304 303 299 299 311 306 305 302 301 297 304 307 302 307 311 311 311 313 315 317 317 318 317 317 317 316 315 316 317 317 318
307 307 307 307 307 307 307 307 308 308 305 302 301 299 300 300 293 297 296 298 298 303 307 307 302 303 305 307 304 302 299 298 303 302 305 307 310 311 310 314 315 316 318 318 318 318 318 318 319 318 316 318 317 318
307 307 307 307 307 307 308 309 309 306 298 297 300 290 297 296 298 298 299 299 304 306 309 308 304 304 303 303 302 300 302 303 298 300 304 306 307 309 311 314 316 315 315 316 316 317 317 315 315 318 318 318 318 316
307 307 307 306 308 309 309 308 308 300 296 296 299 289 296 300 301 302 303 303 306 310 308 306 304 305 302 302 301 301 299 298 301 300 306 308 308 312 313 315 315 315 314 314 314 313 312 313 313 317 319 318 320 319
307 305 306 309 309 309 308 305 301 299 298 297 297 295 299 296 297 298 298 300 307 310 309 307 303 302 302 301 299 299 298 298 303 308 310 310 310 312 312 313 315 315 314 312 311 310 309 309 309 309 313 315 314 314
306 296 304 308 308 307 307 300 300 299 298 298 296 298 297 297 297 297 299 301 307 309 308 306 301 300 302 298 298 300 298 304 308 312 313 311 312 312 312 313 314 314 311 309 308 307 307 307 307 306 305 306 307 307
299 299 306 307 307 302 302 300 300 301 297 298 294 296 297 298 298 299 300 303 307 306 309 308 309 303 301 299 298 305 306 309 313 314 312 312 312 312 314 312 313 313 310 309 308 307 306 305 304 304 303 304 304 305
299 301 305 306 306 303 300 302 301 298 298 298 297 296 297 298 300 301 302 304 306 308 308 305 302 302 303 306 304 307 311 312 313 312 313 313 314 314 314 313 313 311 310 307 306 306 305 304 304 304 304 303 303 304
306 306 306 306 307 299 298 298 305 296 294 295 296 296 297 298 301 302 302 301 303 305 304 303 303 304 306 307 312 312 312 313 316 312 311 312 314 314 313 313 313 311 309 308 307 304 306 304 304 305 304 303 303 304
304 304 308 306 302 300 298 297 294 296 296 295 297 297 297 298 298 299 299 300 299 299 301 306 307 311 312 312 312 316 318 318 314 313 313 312 313 314 313 313 312 310 308 308 307 307 304 305 305 305 305 304 305 306
303 307 304 304 300 301 300 297 294 296 294 295 295 295 294 295 296 298 299 297 296 298 301 304 308 311 314 316 316 317 314 313 313 310 308 308 311 310 310 313 311 310 309 309 308 305 305 305 305 304 303 300 300 302
304 304 301 301 297 294 292 296 293 295 292 293 296 294 294 295 298 300 296 297 299 300 301 303 306 312 313 316 318 317 314 313 312 311 311 312 312 311 312 314 315 311 308 306 306 305 304 301 304 304 304 301 299 301
305 299 297 295 296 291 298 296 296 295 295 293 293 293 294 296 298 297 295 297 299 305 305 306 310 311 311 312 312 313 315 314 313 312 313 312 310 310 311 313 311 310 310 309 305 306 305 306 302 304 303 302 302 304
292 290 292 287 296 295 295 296 296 294 292 295 293 293 294 298 294 294 294 298 302 305 307 309 308 309 311 311 313 313 315 315 313 311 312 312 309 307 309 310 310 311 312 309 307 307 306 306 308 308 304 303 301 300
287 293 289 293 295 292 296 294 295 296 297 295 296 296 297 295 294 292 297 306 308 310 310 310 310 306 307 310 311 311 312 314 312 310 311 312 310 308 308 308 307 309 312 311 307 306 305 305 305 305 302 301 296 301
288 290 295 298 297 299 298 299 300 298 296 296 295 296 294 292 293 300 307 310 310 313 315 314 310 308 310 311 312 312 312 312 312 311 311 312 313 314 313 310 308 311 313 311 307 306 305 305 305 304 302 301 300 299
293 295 292 296 297 298 294 295 298 296 297 300 300 297 297 297 298 304 308 313 313 315 313 310 310 312 314 315 316 314 313 313 314 314 314 314 313 311 312 313 313 303 312 313 312 308 307 305 303 302 301 299 298 299
294 297 297 294 297 296 298 296 295 298 299 298 296 297 299 303 305 304 308 312 315 310 310 310 309 309 308 311 313 314 314 314 311 308 305 304 307 311 314 312 310 311 311 310 303 304 303 302 300 300 300 299 298 297
296 298 294 296 294 295 296 300 298 301 305 305 305 305 305 303 305 312 313 313 311 311 312 311 309 307 305 304 302 301 301 305 311 308 305 304 305 308 309 309 309 308 309 310 310 308 295 300 297 299 300 300 299 297
297 295 293 293 294 298 301 303 304 307 307 306 307 304 303 305 309 313 313 313 311 312 311 305 304 303 303 301 300 301 298 299 301 304 306 307 308 308 307 307 307 307 307 307 303 300 299 298 297 297 297 296 296 295
294 294 293 293 295 300 301 300 300 301 303 304 304 305 305 304 302 308 311 310 306 301 299 299 297 297 298 299 299 298 295 296 296 298 299 299 299 300 303 305 307 307 301 300 299 299 299 298 297 297 296 296 296 296
293 293 294 294 297 298 299 299 299 299 302 302 303 305 305 304 303 308 312 312 308 303 300 299 299 300 299 299 297 295 295 294 292 291 292 292 293 297 302 303 303 302 300 299 298 298 298 297 297 296 296 295 294 294
Wind_Speed
13 14 14 16 17 18 18 20 20 21 21 22 22 23 23 22 18 8 5 3 2 2 7 4 3 1 4 3 2 5 4 5 5 5 3 1 1 1 3 2 3 4 5 3 3 3 6 3 1 4 5 3 6 4
12 13 14 15 16 17 18 20 21 22 22 22 23 22 21 20 19 12 3 2 2 3 7 4 8 16 9 13 3 2 4 3 4 5 1 2 2 2 2 2 2 1 6 6 6 6 4 4 4 3 3 5 4 6
11 12 14 14 15 16 18 19 21 22 23 23 23 23 21 18 15 10 3 4 2 3 6 4 8 3 3 9 5 3 2 4 1 4 4 2 4 3 2 3 1 4 3 5 4 3 0 3 3 4 3 6 5 5
14 14 16 17 16 17 18 19 21 22 23 24 24 24 22 19 14 8 2 2 1 1 1 9 4 9 3 5 11 6 4 4 5 3 3 2 3 3 4 3 3 4 3 6 2 3 1 2 2 4 5 5 4 3
12 13 15 18 18 17 18 19 21 22 24 24 25 24 23 20 17 5 3 3 1 4 3 7 10 7 8 3 10 6 5 4 3 2 3 4 2 3 2 3 2 2 8 6 7 8 5 4 1 2 6 5 6 9
13 13 13 16 19 16 18 20 21 22 24 25 25 25 22 17 14 2 3 1 2 2 2 5 6 6 5 2 7 6 3 4 4 4 4 3 4 4 4 3 5 4 4 7 6 5 6 5 6 4 9 6 6 7
16 15 14 14 16 16 19 20 22 24 25 26 27 26 21 12 1 3 4 2 1 2 3 6 7 6 3 4 3 3 4 2 4 2 2 2 1 5 4 4 5 2 4 8 9 10 6 3 5 6 8 6 5 5
16 17 16 15 15 15 18 21 23 24 27 28 29 25 19 4 3 2 2 3 4 4 2 1 7 6 0 1 0 1 3 3 2 2 1 2 3 2 2 4 5 5 8 8 6 7 7 7 6 6 4 5 6 5
15 16 18 18 17 16 16 20 23 26 28 30 27 18 2 2 2 2 10 2 1 3 2 2 2 5 4 1 1 3 2 1 1 2 2 5 3 1 4 5 7 5 6 8 8 9 8 9 7 6 6 5 4 3
13 15 16 17 17 18 19 20 22 26 30 21 6 4 1 1 15 6 3 3 3 2 2 4 1 5 3 2 1 3 2 2 1 4 3 5 0 2 1 4 6 7 9 8 9 6 4 6 6 4 4 2 0 2
13 13 15 16 17 18 18 19 20 24 11 6 6 3 5 15 2 3 1 1 1 3 4 5 6 3 2 3 4 2 3 1 2 5 5 1 1 3 1 5 5 8 9 9 9 7 6 7 5 4 3 3 2 2
13 11 14 16 18 18 18 17 16 6 1 3 5 5 4 4 3 1 3 3 4 6 4 5 6 6 4 3 3 1 3 2 4 2 5 3 4 4 6 7 8 9 12 10 8 8 7 6 4 3 1 1 1 0
16 12 13 16 18 18 18 17 14 12 8 1 1 3 3 2 2 5 4 3 3 3 2 2 3 4 1 2 3 2 3 5 1 4 4 4 3 4 6 9 8 7 8 8 7 6 6 5 4 3 2 1 2 2
16 15 15 16 18 20 13 11 10 5 2 1 0 5 5 3 5 5 4 4 7 4 4 3 2 3 1 3 2 4 2 3 2 3 6 3 6 7 5 5 9 6 7 7 6 6 6 5 4 4 4 3 3 5
15 16 16 15 8 10 11 10 8 1 1 2 0 5 5 4 4 4 3 4 4 3 2 0 1 3 1 4 1 3 2 2 2 5 3 4 6 7 7 6 7 6 6 5 4 5 4 4 5 6 5 5 5 4
14 12 2 7 12 15 16 7 1 2 2 3 4 3 4 1 5 4 3 5 3 3 1 1 3 3 2 4 3 4 5 4 4 3 4 7 7 6 7 7 6 6 6 6 5 4 4 4 4 3 4 5 5 4
8 3 9 11 15 19 10 2 1 3 4 4 4 3 3 4 5 4 2 4 4 4 1 1 3 6 2 4 2 4 6 5 4 6 6 7 8 8 7 6 6 6 7 6 4 4 3 3 4 4 6 3 3 3
4 5 9 12 12 6 2 2 2 4 6 5 2 5 2 3 4 5 4 3 2 1 1 1 1 1 3 6 3 4 2 1 4 7 5 5 6 6 6 7 6 7 7 6 5 4 4 4 5 3 2 2 2 4
5 5 12 12 8 4 3 2 3 4 4 3 4 3 3 4 5 5 4 4 3 3 3 3 2 1 2 3 4 4 4 4 8 4 4 5 7 7 7 6 7 6 7 6 5 4 3 4 3 3 1 2 1 0
10 15 16 12 6 2 3 4 1 2 4 4 3 4 3 4 4 4 4 3 2 2 3 2 2 3 3 2 2 4 4 5 8 5 3 2 3 6 7 7 6 6 5 4 3 3 2 0 2 3 2 3 3 3
4 4 4 4 2 3 3 3 4 4 4 3 3 2 4 3 3 3 3 2 3 1 2 3 3 2 2 2 3 2 8 9 5 5 6 4 4 5 5 4 5 4 4 4 4 3 3 4 3 3 2 3 4 4
3 5 1 2 2 3 3 3 4 4 2 4 4 3 3 2 3 4 1 2 2 4 4 3 2 2 3 2 3 3 6 6 5 3 5 7 5 3 4 5 6 5 5 5 4 5 5 4 3 3 3 2 0 2
6 1 2 1 2 1 6 1 2 3 2 4 3 3 3 3 4 2 2 3 4 4 2 3 3 3 4 1 7 4 4 7 4 4 4 3 3 3 4 5 6 6 4 4 4 4 4 4 4 2 2 3 2 2
2 2 1 2 3 4 3 3 4 3 2 2 3 4 3 4 1 2 2 3 3 3 4 4 2 3 4 3 3 3 4 4 4 3 4 5 4 4 4 6 5 5 6 4 4 4 3 3 2 1 2 1 3 5
1 2 2 4 3 4 4 3 2 1 4 2 3 4 3 2 1 1 2 3 4 4 4 6 3 1 5 5 4 4 4 4 5 5 3 3 4 3 4 4 4 3 3 4 2 3 2 2 3 2 1 2 6 7
2 4 6 3 2 3 3 2 3 3 2 3 5 3 2 1 1 1 2 4 4 4 5 4 4 1 1 1 3 3 4 4 4 4 2 4 4 6 5 6 6 4 5 4 6 3 5 5 5 4 5 6 11 9
2 3 4 4 3 3 3 4 3 3 3 3 3 4 3 1 3 2 3 1 3 3 3 4 3 3 4 4 2 2 1 3 6 4 3 3 4 4 5 6 7 3 4 2 3 7 6 7 6 5 6 5 5 6
4 3 4 3 3 3 3 3 1 1 2 3 3 2 3 3 2 2 2 4 5 3 2 3 2 3 4 7 5 3 5 6 8 8 8 8 7 6 8 6 6 10 7 6 5 4 4 4 5 6 7 7 4 3
3 3 2 5 3 3 3 2 2 1 1 1 0 1 2 1 0 2 3 4 2 3 3 5 7 6 7 6 4 4 3 3 7 8 8 5 3 2 2 4 5 5 5 7 4 4 2 5 6 6 7 5 4 2
4 2 2 3 2 3 3 2 2 2 1 1 1 2 2 2 2 3 2 3 4 4 4 5 5 8 7 4 6 6 4 2 3 5 5 4 4 4 4 4 4 3 4 4 4 3 6 7 5 4 5 3 2 3
1 3 2 2 3 3 4 3 2 3 1 0 1 2 2 2 2 3 5 4 4 4 6 7 8 5 4 3 4 7 7 6 5 6 5 4 5 5 5 5 4 4 3 2 5 6 6 5 5 6 6 8 8 7
1 1 1 3 4 5 4 0 1 2 2 1 3 3 3 3 2 4 6 4 1 4 7 6 5 4 1 5 6 6 7 3 4 4 6 4 4 3 4 3 4 5 6 6 6 6 8 9 7 8 7 7 7 7
2 2 2 2 3 3 3 3 2 3 3 2 3 3 1 2 5 2 1 3 3 2 5 4 3 5 8 9 7 5 7 5 7 9 10 13 13 11 8 8 9 9 10 9 7 8 10 12 9 8 8 7 7 6
Wind_Direction
336 337 339 340 341 340 337 337 337 339 340 342 344 347 348 349 353 358 274 234 111 200 277 228 271 328 357 46 76 286 18 351 31 50 81 250 122 26 91 131 142 165 132 160 98 85 279 35 338 185 184 95 136 119
331 332 333 335 336 335 333 333 334 335 336 337 339 342 344 346 349 355 291 317 359 173 242 258 252 254 204 219 138 331 195 209 206 94 175 100 51 59 159 176 88 200 177 176 160 211 274 307 111 102 138 120 94 112
316 319 321 324 328 329 330 331 332 332 333 333 334 336 337 340 345 354 286 300 9 38 306 356 255 308 222 209 178 148 288 214 91 169 157 150 85 128 133 227 26 3 99 93 84 286 160 100 95 117 106 111 127 148
322 324 326 329 325 325 326 326 328 328 329 329 330 330 331 332 335 341 271 273 100 107 21 283 324 292 269 213 183 188 171 67 95 73 97 119 140 159 205 199 144 189 76 126 37 303 80 13 135 115 107 108 112 99
315 318 320 324 326 326 328 326 325 325 325 325 325 325 325 326 323 302 218 251 221 127 230 280 304 266 286 176 163 136 109 103 94 69 94 220 182 114 37 59 265 182 167 154 203 192 159 204 357 92 100 78 72 93
321 315 315 322 324 326 324 324 324 323 321 320 320 318 318 321 326 331 28 289 347 105 78 317 293 296 315 111 118 109 104 89 94 137 208 250 260 114 127 173 255 253 202 156 155 153 116 103 77 71 102 99 95 92
333 326 317 314 319 318 321 322 322 322 320 318 316 313 310 302 257 164 189 236 62 41 81 314 315 282 284 65 25 65 42 95 116 156 218 206 282 87 101 153 220 268 112 100 109 107 65 47 122 109 113 119 93 79
323 327 328 325 318 315 319 321 322 322 320 317 314 310 308 259 240 344 345 37 135 91 87 255 272 336 201 170 145 18 91 36 7 185 44 182 26 41 100 240 147 120 95 78 86 81 117 118 80 73 78 94 71 43
317 322 326 329 331 327 326 323 323 322 319 316 309 306 118 23 57 257 330 168 9 131 212 163 214 251 349 18 109 38 80 100 286 180 237 86 340 95 245 168 141 178 121 140 82 84 89 95 97 86 87 71 69 6
304 314 321 323 326 328 326 325 325 324 318 317 1 25 0 345 313 316 29 33 20 340 52 224 219 264 86 7 349 92 33 154 142 247 91 70 258 294 226 133 133 119 126 137 111 103 92 90 99 86 69 51 78 296
300 308 313 320 321 322 324 325 329 331 351 20 11 333 302 307 20 40 254 173 176 261 198 234 189 215 276 127 206 185 175 141 133 259 113 68 161 213 145 117 103 96 92 74 94 94 100 122 127 100 43 20 13 99
314 303 307 309 314 317 317 321 330 357 328 264 286 289 304 344 35 138 234 295 199 231 209 183 215 194 258 116 109 246 141 77 227 164 82 137 241 179 137 110 97 94 99 97 103 109 104 94 94 98 91 12 20 339
321 320 306 304 309 308 309 310 311 303 310 8 240 295 44 283 62 202 222 257 265 250 238 252 230 184 4 63 68 102 115 216 63 54 162 197 161 132 128 115 100 102 109 108 106 103 105 97 73 66 17 313 315 88
314 313 304 303 307 308 315 314 312 333 31 323 336 319 177 229 242 198 206 229 249 241 277 212 212 162 212 83 148 107 225 93 80 133 213 197 170 149 138 118 116 125 119 119 114 91 79 71 55 30 10 357 95 95
311 306 302 304 308 325 325 317 315 23 67 267 130 234 229 249 267 264 255 308 273 268 296 312 33 102 17 103 19 95 113 197 209 214 208 159 153 143 130 131 134 139 134 110 107 98 82 75 75 68 44 63 74 80
310 314 331 328 336 326 315 316 21 130 252 238 239 279 276 354 320 317 307 297 266 303 259 36 114 91 195 137 114 194 132 198 232 196 155 136 155 153 147 147 149 140 128 120 112 111 105 92 97 82 55 50 57 62
312 249 292 339 334 319 307 150 167 230 239 252 255 238 237 241 242 264 272 275 317 318 292 109 145 195 120 88 150 162 175 204 173 138 149 158 157 159 156 146 142 127 122 124 124 128 130 123 107 89 78 25 47 34
239 268 304 335 332 319 280 202 240 247 240 255 258 263 238 232 268 284 262 288 336 339 44 312 286 167 182 159 200 218 180 72 104 139 149 151 141 151 150 148 139 139 141 147 152 147 132 122 105 102 87 33 43 38
241 274 300 309 312 303 290 242 191 266 247 262 270 263 235 253 256 256 275 277 232 261 104 33 19 319 272 228 194 170 154 160 147 149 151 158 150 151 152 146 142 146 152 160 163 169 173 176 164 175 185 135 141 244
272 277 274 274 275 267 267 267 197 244 268 255 290 282 255 243 272 288 296 301 340 42 43 68 231 249 250 254 213 137 120 116 130 108 122 163 167 148 161 157 167 161 156 156 157 142 147 315 277 251 242 219 210 225
293 266 289 146 197 217 272 294 284 229 279 278 275 306 270 317 297 297 294 337 51 146 186 207 226 234 345 34 58 166 130 142 161 157 167 176 192 166 160 169 150 148 153 167 176 207 197 221 240 262 260 259 239 236
267 310 266 173 248 222 251 231 224 277 287 258 306 209 250 257 252 253 213 63 221 233 203 191 222 171 125 117 86 268 140 100 107 110 96 113 138 168 181 172 145 173 188 190 181 194 214 224 208 227 215 232 295 137
300 258 263 237 268 275 265 27 245 251 245 265 328 277 251 246 229 91 245 216 242 238 227 214 232 197 152 187 108 226 124 135 149 167 158 162 157 159 153 168 177 167 188 226 197 182 193 204 209 194 224 149 204 116
218 264 255 256 196 269 291 253 214 251 264 271 252 260 239 227 289 79 235 249 274 352 16 315 183 97 64 84 134 206 188 152 146 157 156 145 160 206 191 178 179 188 191 168 176 190 185 220 231 272 278 174 155 128
283 256 135 269 247 253 248 253 238 234 245 239 259 275 271 24 75 272 233 332 344 343 349 355 349 217 171 185 165 192 189 151 164 162 176 169 131 99 83 73 74 57 113 118 127 140 146 180 234 248 309 155 145 132
221 212 190 245 239 208 269 283 284 333 327 307 254 301 5 47 250 295 26 348 334 357 358 344 330 272 302 161 191 184 191 177 133 119 153 161 148 131 133 120 102 52 20 59 68 89 87 51 31 71 79 100 115 120
285 273 222 233 250 265 263 248 228 255 251 251 335 324 337 296 31 34 302 348 308 321 314 325 303 108 100 28 350 342 82 99 102 126 102 99 137 133 127 127 111 99 50 106 55 64 75 77 77 89 96 73 83 109
243 255 234 251 251 224 238 280 229 198 277 284 310 330 11 19 37 312 288 306 304 291 309 336 339 315 67 34 32 80 84 96 101 102 84 58 52 87 103 102 112 114 97 96 71 59 108 143 126 115 118 125 138 144
263 255 276 283 267 261 246 273 300 4 289 273 356 325 283 7 267 272 281 298 319 77 25 29 24 46 58 69 61 73 86 119 126 109 101 114 122 120 114 138 151 155 142 125 127 73 139 130 124 127 135 148 167 151
249 198 253 268 285 279 265 194 191 137 305 338 309 307 322 336 277 275 313 5 41 58 43 48 54 53 50 59 78 56 11 327 85 113 128 150 172 154 150 171 148 107 86 90 70 83 109 103 78 67 77 72 85 87
304 20 336 275 266 262 260 282 140 129 200 281 306 348 323 322 353 343 34 44 26 8 28 45 39 24 350 297 90 84 55 11 52 90 102 109 126 144 155 154 144 126 122 93 108 115 111 92 98 95 73 68 64 70
316 248 231 298 290 285 304 328 195 151 120 352 355 339 337 33 53 43 352 5 29 70 66 79 84 63 28 70 64 63 77 61 37 48 72 93 94 86 122 136 115 100 89 94 104 102 98 98 93 96 93 81 77 73
289 272 248 279 293 300 305 324 249 121 72 56 348 347 320 339 70 110 318 321 2 31 103 108 98 72 69 73 78 73 63 67 56 44 64 77 82 81 80 86 92 93 89 81 75 87 91 97 95 90 90 93 88 79